N1FZH Weather Reports


Display with metric or nautical units.
time (UTC)temp
F
wind
direction
speed
MPH
gust
MPH
rain 1hr
in
rain 24hr
in
rain mn
in
humidity
%
barometer
mb
20190525104842 46 280 0.0 1.0 0.00 0.00 0.00 91 1023.6
20190525104344 46 355 0.0 1.0 0.00 0.00 0.00 91 1023.5
20190525103832 46 269 0.0 1.0 0.00 0.00 0.00 91 1023.4
20190525103340 46 269 0.0 2.0 0.00 0.00 0.00 91 1023.3
20190525102845 46 76 0.0 2.0 0.00 0.00 0.00 91 1023.2
20190525102344 46 82 1.0 2.0 0.00 0.00 0.00 91 1023.0
20190525101831 46 136 0.0 0.0 0.00 0.00 0.00 91 1023.0
20190525101344 46 136 0.0 0.0 0.00 0.00 0.00 91 1023.2
20190525100832 46 136 0.0 1.0 0.00 0.00 0.00 91 1023.1
20190525100340 46 136 0.0 1.0 0.00 0.00 0.00 91 1023.0
20190525095827 46 79 0.0 1.0 0.00 0.00 0.00 91 1023.0
20190525095336 46 79 0.0 1.0 0.00 0.00 0.00 91 1022.9
20190525094840 46 79 0.0 1.0 0.00 0.00 0.00 91 1022.9
20190525094328 46 82 0.0 1.0 0.00 0.00 0.00 91 1022.7
20190525093836 46 349 0.0 1.0 0.00 0.00 0.00 91 1022.8
20190525093344 46 285 0.0 0.0 0.00 0.00 0.00 91 1022.8
20190525092837 46 284 0.0 0.0 0.00 0.00 0.00 91 1022.6
20190525092342 46 284 0.0 0.0 0.00 0.00 0.00 91 1022.6
20190525091830 46 284 0.0 1.0 0.00 0.00 0.00 91 1022.3
20190525091337 46 284 0.0 1.0 0.00 0.00 0.00 91 1022.4
20190525090844 46 162 0.0 0.0 0.00 0.00 0.00 91 1022.3
20190525090333 45 162 0.0 0.0 0.00 0.00 0.00 91 1022.0
20190525085840 45 162 0.0 0.0 0.00 0.00 0.00 91 1021.9
20190525085329 45 162 0.0 0.0 0.00 0.00 0.00 91 1021.7
20190525084837 45 162 0.0 0.0 0.00 0.00 0.00 91 1021.7
20190525084329 45 162 0.0 0.0 0.00 0.00 0.00 91 1021.7
20190525083838 45 162 0.0 0.0 0.00 0.00 0.00 91 1021.9
20190525083345 45 162 0.0 0.0 0.00 0.00 0.00 91 1022.0
20190525082832 45 162 0.0 0.0 0.00 0.00 0.00 91 1022.0
20190525082340 45 162 0.0 0.0 0.00 0.00 0.00 91 1022.1
20190525081828 45 162 0.0 0.0 0.00 0.00 0.00 91 1022.2
20190525081334 45 162 0.0 0.0 0.00 0.00 0.00 91 1022.2
20190525080840 45 162 0.0 0.0 0.00 0.00 0.00 91 1022.2
20190525080329 45 162 0.0 0.0 0.00 0.00 0.00 91 1022.3
20190525075836 45 162 0.0 0.0 0.00 0.00 0.00 91 1022.4
20190525075327 45 162 0.0 0.0 0.00 0.00 0.00 91 1022.4
20190525074834 45 162 0.0 0.0 0.00 0.00 0.00 91 1022.4
20190525074343 45 162 0.0 0.0 0.00 0.00 0.00 90 1022.4
20190525073829 46 162 0.0 0.0 0.00 0.00 0.00 90 1022.3
20190525073337 46 162 0.0 0.0 0.00 0.00 0.00 90 1022.4
20190525072845 46 162 0.0 0.0 0.00 0.00 0.00 90 1022.3
20190525072332 46 162 0.0 0.0 0.00 0.00 0.00 90 1022.4
20190525071839 46 162 0.0 0.0 0.00 0.00 0.00 91 1022.3
20190525071326 46 162 0.0 0.0 0.00 0.00 0.00 91 1022.3
20190525070839 46 162 0.0 0.0 0.00 0.00 0.00 91 1022.1
20190525070327 46 162 0.0 0.0 0.00 0.00 0.00 91 1022.2
20190525065835 47 162 0.0 0.0 0.00 0.00 0.00 90 1022.2
20190525065341 47 162 0.0 0.0 0.00 0.00 0.00 90 1022.3
20190525064828 47 209 0.0 0.0 0.00 0.00 0.00 90 1022.2
20190525064336 47 209 0.0 0.0 0.00 0.00 0.00 91 1022.1
20190525063843 47 209 0.0 0.0 0.00 0.00 0.00 90 1022.0
20190525063331 48 228 0.0 0.0 0.00 0.00 0.00 90 1022.0
20190525062838 47 228 0.0 0.0 0.00 0.00 0.00 90 1021.8
20190525062330 47 224 0.0 0.0 0.00 0.00 0.00 91 1022.0
20190525061836 48 224 0.0 0.0 0.00 0.00 0.00 91 1022.0
20190525061344 48 224 0.0 0.0 0.00 0.00 0.00 91 1021.8
20190525060832 48 224 0.0 0.0 0.00 0.00 0.00 91 1021.7
20190525060340 48 224 0.0 0.0 0.00 0.00 0.00 91 1021.7
20190525055828 49 224 0.0 0.0 0.00 0.00 0.00 90 1021.5
20190525055335 49 224 0.0 1.0 0.00 0.00 0.00 91 1021.5
20190525054842 49 224 0.0 1.0 0.00 0.00 0.00 91 1021.5
20190525054329 49 223 0.0 0.0 0.00 0.00 0.00 91 1021.3
20190525053837 49 223 0.0 1.0 0.00 0.00 0.00 91 1021.3
20190525053328 49 222 0.0 1.0 0.00 0.00 0.00 91 1021.2
20190525052834 49 204 0.0 0.0 0.00 0.00 0.00 91 1021.1
20190525052339 50 245 0.0 0.0 0.00 0.00 0.00 91 1020.9
20190525051826 50 245 0.0 0.0 0.00 0.00 0.00 91 1020.9
20190525051334 50 245 0.0 0.0 0.00 0.00 0.00 91 1020.9
20190525050841 50 245 0.0 1.0 0.00 0.00 0.00 91 1020.9
20190525050329 50 245 0.0 1.0 0.00 0.00 0.00 91 1020.8
20190525045836 51 22 0.0 0.0 0.00 0.00 0.00 91 1020.8
20190525045342 51 22 0.0 0.0 0.00 0.00 0.00 91 1020.8
20190525044833 51 22 0.0 0.0 0.00 0.00 0.00 91 1020.8
20190525044340 51 22 0.0 1.0 0.00 0.00 0.00 91 1020.7
20190525043827 52 22 0.0 1.0 0.00 0.00 0.00 91 1020.7
20190525043333 52 117 0.0 1.0 0.00 0.00 0.00 91 1020.8
20190525042841 52 149 0.0 1.0 0.00 0.00 0.00 90 1020.6
20190525042329 52 92 0.0 0.0 0.00 0.00 0.00 90 1020.5
20190525041837 52 92 0.0 1.0 0.00 0.00 0.00 90 1020.6
20190525041345 53 92 0.0 1.0 0.00 0.00 0.00 90 1020.7
20190525040832 53 302 0.0 1.0 0.00 0.00 0.00 90 1020.7
20190525040340 53 86 0.0 0.0 0.00 0.00 0.00 89 1020.7
20190525035830 53 86 0.0 1.0 0.00 0.01 0.00 89 1020.9
20190525035337 54 86 0.0 1.0 0.00 0.01 0.00 89 1020.9
20190525034844 54 27 0.0 0.0 0.00 0.01 0.00 88 1021.0
20190525034332 54 5 0.0 0.0 0.00 0.01 0.00 88 1020.9
20190525033839 54 5 0.0 0.0 0.00 0.01 0.00 88 1021.0
20190525033328 54 344 0.0 0.0 0.00 0.01 0.00 88 1020.9
20190525032836 55 338 0.0 0.0 0.00 0.01 0.00 88 1020.9
20190525032344 55 338 0.0 0.0 0.00 0.01 0.00 87 1020.9
20190525031832 55 338 0.0 0.0 0.00 0.01 0.00 87 1020.8
20190525031344 55 338 0.0 0.0 0.00 0.01 0.00 86 1020.9
20190525030831 56 338 0.0 0.0 0.00 0.01 0.00 86 1020.8
20190525030339 56 338 0.0 0.0 0.00 0.01 0.00 86 1020.8
20190525025826 56 338 0.0 0.0 0.00 0.36 0.00 85 1020.9
20190525025334 56 338 0.0 0.0 0.00 0.36 0.00 85 1020.8
20190525024842 56 338 0.0 1.0 0.00 0.36 0.00 85 1020.7
20190525024330 56 338 0.0 1.0 0.00 0.36 0.00 85 1020.7
20190525023837 56 338 0.0 1.0 0.00 0.36 0.00 85 1020.7
20190525023346 56 339 0.0 0.0 0.00 0.36 0.00 84 1020.7
20190525022839 56 338 0.0 0.0 0.00 0.36 0.00 84 1020.6
20190525022327 56 339 0.0 0.0 0.00 0.36 0.00 84 1020.6
20190525021835 56 338 0.0 0.0 0.00 0.36 0.00 84 1020.6
20190525021344 57 339 0.0 2.0 0.00 0.36 0.00 84 1020.6
20190525020832 57 339 0.0 2.0 0.00 0.36 0.00 83 1020.5
20190525020340 57 359 0.0 1.0 0.00 0.36 0.00 83 1020.5
20190525015827 57 84 0.0 0.0 0.00 0.36 0.00 82 1020.4
20190525015334 57 84 0.0 0.0 0.00 0.36 0.00 81 1020.4
20190525014843 57 84 0.0 1.0 0.00 0.36 0.00 81 1020.4
20190525014337 57 84 0.0 1.0 0.00 0.36 0.00 81 1020.3
20190525013844 58 84 0.0 1.0 0.00 0.36 0.00 81 1020.3
20190525013332 58 50 0.0 1.0 0.00 0.36 0.00 81 1020.3
20190525012840 58 50 0.0 2.0 0.00 0.36 0.00 80 1020.2
20190525012327 58 15 0.0 3.0 0.00 0.36 0.00 81 1020.2
20190525011836 58 296 1.0 3.0 0.00 0.36 0.00 80 1020.2
20190525011342 58 307 2.0 4.0 0.00 0.36 0.00 81 1020.1
20190525010831 58 309 2.0 6.0 0.00 0.36 0.00 81 1019.9
20190525010340 58 17 2.0 6.0 0.00 0.36 0.00 81 1019.9
20190525005832 58 343 0.0 3.0 0.00 0.36 0.00 81 1019.8
20190525005339 58 25 0.0 3.0 0.00 0.36 0.00 81 1019.9
20190525004846 58 27 0.0 3.0 0.00 0.36 0.00 80 1019.9
20190525004334 58 55 0.0 3.0 0.00 0.36 0.00 80 1019.7
20190525003842 58 60 1.0 3.0 0.00 0.36 0.00 80 1019.8
20190525003330 58 24 0.0 5.0 0.00 0.36 0.00 80 1019.6
20190525002837 58 91 0.0 1.0 0.00 0.36 0.00 80 1019.6
20190525002346 59 10 0.0 3.0 0.00 0.36 0.00 79 1019.6
20190525001834 59 10 1.0 4.0 0.00 0.36 0.00 79 1019.6
20190525001340 59 268 0.0 6.0 0.00 0.36 0.00 78 1019.5
20190525000833 59 302 2.0 5.0 0.00 0.36 0.00 79 1019.4
20190525000327 59 94 0.0 6.0 0.00 0.36 0.00 79 1019.4
20190524235833 59 267 1.0 3.0 0.00 0.36 0.00 79 1019.3
20190524235341 59 300 1.0 4.0 0.00 0.36 0.00 78 1019.2
20190524234829 59 103 0.0 5.0 0.00 0.36 0.00 78 1019.1
20190524234337 59 289 1.0 9.0 0.00 0.36 0.00 78 1019.1
20190524233844 60 349 3.0 9.0 0.00 0.36 0.00 77 1019.1
20190524233331 60 323 3.0 8.0 0.00 0.36 0.00 77 1019.0
20190524232836 60 339 4.0 8.0 0.00 0.36 0.00 77 1018.9
20190524232328 60 331 3.0 8.0 0.00 0.36 0.00 77 1018.9
20190524231834 60 326 2.0 9.0 0.00 0.36 0.00 77 1018.8
20190524231341 60 19 2.0 5.0 0.00 0.36 0.00 77 1018.6
20190524230828 60 322 2.0 8.0 0.00 0.36 0.00 77 1018.6
20190524230338 60 297 2.0 8.0 0.00 0.36 0.00 77 1018.4
20190524225846 60 315 2.0 5.0 0.00 0.38 0.00 77 1018.3
20190524225334 61 340 0.0 3.0 0.00 0.38 0.00 78 1018.1
20190524224842 61 2 0.0 4.0 0.00 0.38 0.00 78 1018.1
20190524224329 61 307 1.0 6.0 0.00 0.38 0.00 77 1018.0
20190524223837 61 291 3.0 10.0 0.00 0.38 0.00 77 1018.0
20190524223328 61 266 5.0 10.0 0.00 0.38 0.00 76 1017.8
20190524222833 61 291 3.0 10.0 0.00 0.38 0.00 76 1017.8
20190524222341 61 283 5.0 10.0 0.00 0.38 0.00 75 1017.7
20190524221828 61 347 4.0 10.0 0.00 0.38 0.00 75 1017.5
20190524221335 61 304 4.0 10.0 0.00 0.38 0.00 75 1017.4
20190524220844 61 288 4.0 10.0 0.00 0.38 0.00 75 1017.2
20190524220333 62 295 4.0 9.0 0.00 0.38 0.00 73 1017.1
20190524215841 62 344 4.0 18.0 0.00 0.38 0.00 73 1017.2
20190524215328 62 312 3.0 11.0 0.00 0.38 0.00 72 1017.1
20190524214840 63 340 4.0 10.0 0.00 0.38 0.00 72 1016.9
20190524214327 63 305 4.0 11.0 0.00 0.38 0.00 70 1016.8
20190524213832 64 19 5.0 10.0 0.00 0.38 0.00 70 1016.7
20190524213340 64 143 3.0 12.0 0.00 0.38 0.00 70 1016.7
20190524212846 64 352 4.0 13.0 0.00 0.38 0.00 69 1016.6
20190524212334 64 318 5.0 14.0 0.00 0.38 0.00 68 1016.5
20190524211842 64 292 4.0 14.0 0.00 0.38 0.00 70 1016.5
20190524211331 64 312 5.0 11.0 0.00 0.38 0.00 70 1016.4
20190524210840 63 69 1.0 14.0 0.00 0.38 0.00 71 1016.4
20190524210341 63 314 3.0 14.0 0.00 0.38 0.00 71 1016.4
20190524205831 64 2 4.0 13.0 0.00 0.38 0.00 70 1016.3
20190524205341 64 43 6.0 13.0 0.00 0.38 0.00 70 1016.2
20190524204829 64 1 2.0 12.0 0.00 0.38 0.00 71 1016.0
20190524204337 64 61 4.0 8.0 0.00 0.38 0.00 71 1015.9
20190524203843 64 68 3.0 9.0 0.00 0.38 0.00 71 1015.9
20190524203330 64 318 4.0 9.0 0.00 0.38 0.00 71 1015.8
20190524202836 64 73 1.0 6.0 0.00 0.38 0.00 72 1015.6
20190524202345 64 68 1.0 14.0 0.00 0.38 0.00 72 1015.7
20190524201833 64 262 7.0 14.0 0.00 0.38 0.00 70 1015.5
20190524201346 64 336 4.0 10.0 0.00 0.38 0.00 71 1015.4
20190524200830 64 88 3.0 11.0 0.00 0.38 0.00 72 1015.4
20190524200338 65 323 6.0 11.0 0.00 0.38 0.00 70 1015.3
20190524195827 65 82 3.0 8.0 0.00 0.38 0.00 72 1015.2
20190524195335 64 26 2.0 8.0 0.00 0.38 0.00 76 1015.1
20190524194843 63 285 3.0 6.0 0.00 0.38 0.00 74 1015.0
20190524194330 63 293 2.0 6.0 0.00 0.38 0.00 74 1014.9
20190524193838 64 335 1.0 8.0 0.00 0.38 0.00 75 1014.9
20190524193345 64 30 1.0 10.0 0.00 0.38 0.00 75 1014.9
20190524192835 64 48 5.0 10.0 0.00 0.38 0.00 72 1014.8
20190524192343 65 11 4.0 8.0 0.00 0.38 0.00 73 1014.8
20190524191832 65 300 3.0 7.0 0.00 0.38 0.00 73 1014.7
20190524191340 65 36 3.0 10.0 0.00 0.38 0.00 73 1014.6
20190524190828 65 283 4.0 10.0 0.00 0.38 0.00 72 1014.7
20190524190337 65 295 5.0 9.0 0.00 0.38 0.00 72 1014.7
20190524185845 65 221 4.0 8.0 0.00 0.53 0.00 73 1014.7
20190524185332 64 333 4.0 10.0 0.00 0.53 0.00 74 1014.7
20190524184839 64 47 3.0 8.0 0.00 0.53 0.00 78 1014.6
20190524184331 63 23 2.0 8.0 0.00 0.53 0.00 79 1014.5
20190524183826 62 333 0.0 9.0 0.00 0.53 0.00 81 1014.5
20190524183332 61 319 2.0 9.0 0.00 0.53 0.00 79 1014.4
20190524182843 61 277 3.0 11.0 0.00 0.53 0.00 80 1014.4
20190524182328 61 85 5.0 13.0 0.00 0.53 0.00 79 1014.3
20190524181835 61 281 6.0 14.0 0.00 0.53 0.00 79 1014.3
20190524181335 61 305 4.0 14.0 0.00 0.53 0.00 80 1014.1
20190524180843 61 312 4.0 13.0 0.00 0.53 0.00 81 1014.0
20190524180332 61 297 1.0 11.0 0.00 0.53 0.00 81 1014.0
20190524175840 60 252 3.0 9.0 0.00 0.53 0.00 82 1013.9
20190524175332 60 331 5.0 15.0 0.00 0.53 0.00 82 1013.8
20190524174840 60 339 7.0 16.0 0.00 0.53 0.00 81 1013.8
20190524174328 61 16 4.0 16.0 0.00 0.53 0.00 81 1013.8
20190524173833 61 339 5.0 10.0 0.00 0.53 0.00 80 1013.8
20190524173341 60 323 2.0 16.0 0.00 0.53 0.00 81 1013.7
20190524172829 60 323 9.0 16.0 0.00 0.53 0.00 81 1013.5
20190524172335 60 324 6.0 14.0 0.00 0.53 0.00 81 1013.4
20190524171843 60 303 6.0 14.0 0.00 0.53 0.00 80 1013.3
20190524171331 60 327 5.0 10.0 0.00 0.53 0.00 81 1013.1
20190524170838 60 293 4.0 10.0 0.00 0.53 0.00 80 1013.1
20190524170331 60 279 4.0 9.0 0.00 0.53 0.00 81 1013.0
20190524165840 60 249 2.0 8.0 0.00 0.53 0.00 81 1012.9
20190524165328 60 313 5.0 8.0 0.00 0.53 0.00 80 1012.9
20190524164836 60 316 3.0 13.0 0.00 0.53 0.00 80 1012.7
20190524164344 60 298 2.0 13.0 0.00 0.53 0.00 81 1012.9
20190524163834 60 339 4.0 13.0 0.00 0.53 0.00 80 1012.8
20190524163341 60 311 7.0 13.0 0.00 0.53 0.00 80 1012.7
20190524162828 60 318 3.0 10.0 0.00 0.53 0.00 81 1012.5
20190524162335 60 275 3.0 10.0 0.00 0.53 0.00 81 1012.5
20190524161827 59 338 4.0 13.0 0.00 0.53 0.00 81 1012.4
20190524161333 59 288 4.0 13.0 0.00 0.53 0.00 81 1012.2
20190524160841 59 298 5.0 9.0 0.00 0.53 0.00 81 1012.2
20190524160331 59 279 4.0 11.0 0.00 0.53 0.00 82 1012.2
20190524155837 59 352 3.0 12.0 0.00 0.53 0.00 82 1012.1
20190524155325 58 328 4.0 13.0 0.00 0.53 0.00 83 1012.1
20190524154833 58 276 2.0 9.0 0.00 0.53 0.00 84 1012.2
20190524154341 57 310 4.0 9.0 0.00 0.53 0.00 84 1012.1
20190524153826 57 274 3.0 10.0 0.00 0.53 0.00 85 1012.0
20190524153339 57 296 2.0 13.0 0.00 0.53 0.00 85 1012.0
20190524152844 57 311 4.0 13.0 0.00 0.53 0.00 85 1011.9
20190524152331 57 281 6.0 17.0 0.00 0.53 0.00 84 1011.9
20190524151837 57 259 7.0 15.0 0.00 0.53 0.00 84 1011.8
20190524151325 57 270 4.0 10.0 0.00 0.53 0.00 84 1011.7
20190524150833 57 168 4.0 19.0 0.00 0.53 0.00 83 1011.7
20190524150341 57 295 10.0 19.0 0.00 0.53 0.00 83 1011.7
20190524145827 57 330 6.0 13.0 0.00 0.53 0.00 83 1011.7
20190524145334 57 268 5.0 11.0 0.00 0.53 0.00 83 1011.7
20190524144840 57 245 4.0 15.0 0.00 0.53 0.00 83 1011.5
20190524144332 57 331 6.0 15.0 0.00 0.53 0.00 82 1011.4
20190524143839 57 304 7.0 16.0 0.00 0.53 0.00 82 1011.3
20190524143327 58 252 8.0 16.0 0.00 0.53 0.00 82 1011.0
20190524142835 58 316 6.0 14.0 0.00 0.53 0.00 82 1010.8
20190524142342 58 252 7.0 14.0 0.00 0.53 0.00 82 1010.8
20190524141829 58 259 6.0 17.0 0.00 0.53 0.00 82 1010.7
20190524141331 57 321 8.0 17.0 0.00 0.53 0.00 82 1010.7
20190524140834 57 325 6.0 17.0 0.00 0.53 0.00 82 1010.7
20190524140342 57 290 9.0 17.0 0.00 0.53 0.00 82 1010.8
20190524135833 57 257 4.0 20.0 0.00 0.53 0.00 82 1010.7
20190524135340 57 290 7.0 20.0 0.00 0.53 0.00 82 1010.5
20190524134829 57 314 6.0 15.0 0.00 0.53 0.00 83 1010.5
20190524134338 57 299 8.0 16.0 0.00 0.53 0.00 82 1010.4
20190524133845 57 347 6.0 13.0 0.00 0.53 0.00 83 1010.5
20190524133329 57 304 5.0 14.0 0.00 0.53 0.00 83 1010.5
20190524132834 57 288 7.0 14.0 0.00 0.53 0.00 83 1010.4
20190524132335 57 317 6.0 14.0 0.00 0.53 0.00 83 1010.3
20190524131830 57 301 9.0 16.0 0.00 0.53 0.00 83 1010.1
20190524131339 57 302 9.0 16.0 0.00 0.53 0.00 82 1009.9
20190524130831 57 262 5.0 13.0 0.00 0.53 0.00 83 1010.0
20190524130333 57 265 8.0 13.0 0.00 0.53 0.00 82 1010.0
20190524125841 57 338 7.0 18.0 0.00 0.53 0.00 82 1009.8
20190524125329 57 252 6.0 18.0 0.00 0.53 0.00 83 1009.5
20190524124837 57 284 8.0 18.0 0.00 0.53 0.00 83 1009.4
20190524124325 56 335 10.0 18.0 0.00 0.53 0.00 83 1009.6
20190524123833 56 282 8.0 15.0 0.00 0.53 0.00 83 1009.6
20190524123341 56 288 8.0 16.0 0.00 0.53 0.00 83 1009.5
20190524122829 56 288 8.0 22.0 0.00 0.53 0.00 84 1009.4
20190524122333 56 291 7.0 22.0 0.00 0.53 0.00 83 1009.4
20190524121842 56 271 9.0 17.0 0.00 0.53 0.00 83 1009.3
20190524121329 56 271 9.0 16.0 0.00 0.53 0.00 83 1009.2
20190524120835 56 301 6.0 17.0 0.00 0.53 0.00 84 1009.4
20190524120345 56 323 9.0 17.0 0.00 0.53 0.00 84 1009.5
20190524115833 56 345 6.0 17.0 0.00 0.53 0.00 83 1009.3
20190524115340 56 305 6.0 19.0 0.00 0.53 0.00 83 1009.2
20190524114828 56 307 7.0 19.0 0.00 0.53 0.00 83 1009.2
20190524114337 56 296 6.0 21.0 0.00 0.53 0.00 83 1009.1
20190524113845 56 264 8.0 21.0 0.00 0.53 0.00 83 1009.1
20190524113337 56 317 7.0 17.0 0.00 0.53 0.00 83 1009.1
20190524112842 56 302 6.0 20.0 0.00 0.53 0.00 83 1009.0
20190524112345 56 333 7.0 20.0 0.00 0.53 0.00 83 1008.7
20190524111833 56 338 10.0 20.0 0.00 0.53 0.00 83 1008.5
20190524111340 56 231 7.0 22.0 0.00 0.53 0.00 83 1008.5
20190524110827 56 321 5.0 22.0 0.00 0.53 0.00 83 1008.4
20190524110337 56 5 9.0 19.0 0.00 0.53 0.00 83 1008.3
20190524105845 56 309 4.0 15.0 0.00 0.53 0.00 84 1008.3
20190524105332 56 229 6.0 21.0 0.00 0.53 0.00 84 1008.1